Location: Prestice
(49.5670°N, 13.3170°E)
Time: 02:12:13
(UTC+02:00)

ISS - Visible Passes

Search period start: 19 May 2026 00:00
Search period end: 29 May 2026 00:00
Orbit: 414 x 424 km, 51.6° (Epoch: 18 May)

Date Brightness Start Highest point End Pass type
(mag) Time Alt. Az. Time Alt. Az. Time Alt. Az.
19 May -1.4 00:15:01 10° W 00:15:53 15° WSW 00:15:53 15° WSW visible
19 May -3.7 21:50:05 10° WNW 21:53:26 79° NNE 21:56:47 10° ESE visible
19 May -2.6 23:27:04 10° W 23:29:49 29° SW 23:29:49 29° SW visible
20 May -3.2 22:39:15 10° WNW 22:42:27 43° SSW 22:43:46 27° SSE visible
21 May -3.6 21:51:30 10° WNW 21:54:49 61° SSW 21:57:45 12° SE visible
21 May -1.5 23:29:16 10° WSW 23:30:41 14° SW 23:30:41 14° SW visible
22 May -2.0 22:41:00 10° W 22:43:35 21° SW 22:44:42 17° S visible
23 May -2.5 21:53:02 10° W 21:56:01 30° SW 21:58:45 11° SSE visible
25 May -1.4 21:55:11 10° WSW 21:57:01 14° SW 21:58:51 10° S visible
